Time,TemperatureF,DewpointF,PressureIn,WindDirection,WindDirectionDegrees,WindSpeedMPH,WindSpeedGustMPH,Humidity,HourlyPrecipIn,Conditions,Clouds,dailyrainin,SoftwareType,DateUTC
2013-08-31 00:02:00,57.9,47.0,30.01,SW,225,3.5,3.5,67,0.00,RA,,0.00,WeatherDisplay:10.37,2013-08-31 07:02:00,
2013-08-31 00:07:00,57.9,47.0,30.01,SW,225,3.5,3.5,67,0.00,RA,,0.00,WeatherDisplay:10.37,2013-08-31 07:07:00,
2013-08-31 00:12:00,57.9,47.0,30.01,SW,225,2.3,2.3,67,0.00,CLR,,0.00,WeatherDisplay:10.37,2013-08-31 07:12:00,
2013-08-31 00:17:00,57.9,47.4,30.01,South,180,2.3,2.3,68,0.00,CLR,,0.00,WeatherDisplay:10.37,2013-08-31 07:17:00,
2013-08-31 00:22:00,57.9,47.4,30.00,South,180,3.5,3.5,68,0.00,CLR,,0.00,WeatherDisplay:10.37,2013-08-31 07:22:00,
2013-08-31 00:27:00,58.1,47.6,30.00,SW,225,1.2,1.2,68,0.00,CLR,,0.00,WeatherDisplay:10.37,2013-08-31 07:27:00,
2013-08-31 00:32:00,57.9,47.4,30.00,South,180,1.2,1.2,68,0.00,CLR,,0.00,WeatherDisplay:10.37,2013-08-31 07:32:00,
2013-08-31 00:37:00,58.3,48.2,30.00,South,180,2.3,2.3,69,0.00,CLR,,0.00,WeatherDisplay:10.37,2013-08-31 07:37:00,
2013-08-31 00:42:00,57.9,47.8,30.00,SE,135,1.2,1.2,69,0.00,CLR,,0.00,WeatherDisplay:10.37,2013-08-31 07:42:00,
2013-08-31 00:47:00,57.9,47.8,30.00,South,180,2.3,2.3,69,0.00,CLR,,0.00,WeatherDisplay:10.37,2013-08-31 07:47:00,
2013-08-31 00:52:00,57.9,47.8,30.00,South,180,2.3,2.3,69,0.00,CLR,,0.00,WeatherDisplay:10.37,2013-08-31 07:52:00,
2013-08-31 00:57:00,57.9,47.8,30.00,SE,135,1.2,1.2,69,0.00,CLR,,0.00,WeatherDisplay:10.37,2013-08-31 07:57:00,
2013-08-31 01:02:00,57.9,47.8,30.00,South,180,1.2,0.0,69,0.00,CLR,,0.00,WeatherDisplay:10.37,2013-08-31 08:02:00,
2013-08-31 01:07:00,57.7,47.6,30.00,South,180,2.3,2.3,69,0.00,CLR,,0.00,WeatherDisplay:10.37,2013-08-31 08:07:00,
2013-08-31 01:13:00,57.7,47.6,30.00,South,180,1.2,0.0,69,0.00,CLR,,0.00,WeatherDisplay:10.37,2013-08-31 08:13:00,
2013-08-31 01:18:00,57.7,47.6,30.00,South,180,1.2,0.0,69,0.00,CLR,,0.00,WeatherDisplay:10.37,2013-08-31 08:18:00,
2013-08-31 01:23:00,57.7,47.6,29.99,South,180,1.2,0.0,69,0.00,CLR,,0.00,WeatherDisplay:10.37,2013-08-31 08:23:00,
2013-08-31 01:28:00,57.6,47.5,29.99,South,180,1.2,0.0,69,0.00,CLR,,0.00,WeatherDisplay:10.37,2013-08-31 08:28:00,
2013-08-31 01:33:00,57.4,47.3,29.99,South,180,1.6,1.6,69,0.00,CLR,,0.00,WeatherDisplay:10.37,2013-08-31 08:33:00,
2013-08-31 01:38:00,57.4,47.3,29.99,SE,135,1.2,0.0,69,0.00,CLR,,0.00,WeatherDisplay:10.37,2013-08-31 08:38:00,
2013-08-31 01:43:00,57.2,47.1,29.99,SE,135,0.0,0.0,69,0.00,CLR,,0.00,WeatherDisplay:10.37,2013-08-31 08:43:00,
2013-08-31 01:48:00,57.2,47.1,29.99,South,180,1.2,0.0,69,0.00,CLR,,0.00,WeatherDisplay:10.37,2013-08-31 08:48:00,
2013-08-31 01:53:00,57.0,46.9,29.98,South,180,1.2,1.2,69,0.00,CLR,,0.00,WeatherDisplay:10.37,2013-08-31 08:53:00,
2013-08-31 01:58:00,57.0,46.9,29.98,South,180,1.2,0.0,69,0.00,CLR,,0.00,WeatherDisplay:10.37,2013-08-31 08:58:00,
2013-08-31 02:03:00,57.0,46.9,29.98,South,180,0.0,0.0,69,0.00,CLR,,0.00,WeatherDisplay:10.37,2013-08-31 09:03:00,
2013-08-31 02:08:00,57.0,46.9,29.98,South,180,1.2,0.0,69,0.00,CLR,,0.00,WeatherDisplay:10.37,2013-08-31 09:08:00,
2013-08-31 02:13:00,56.8,46.8,29.98,SE,135,0.0,0.0,69,0.00,CLR,,0.00,WeatherDisplay:10.37,2013-08-31 09:13:00,
2013-08-31 02:18:00,57.0,46.9,29.98,SW,225,1.2,0.0,69,0.00,CLR,,0.00,WeatherDisplay:10.37,2013-08-31 09:18:00,
2013-08-31 02:23:00,57.0,46.9,29.98,SW,225,2.3,2.3,69,0.00,CLR,,0.00,WeatherDisplay:10.37,2013-08-31 09:23:00,
2013-08-31 02:28:00,57.0,46.9,29.98,SW,225,1.2,0.0,69,0.00,CLR,,0.00,WeatherDisplay:10.37,2013-08-31 09:28:00,
2013-08-31 02:33:00,56.8,46.8,29.97,SW,225,0.0,0.0,69,0.00,CLR,,0.00,WeatherDisplay:10.37,2013-08-31 09:33:00,
2013-08-31 02:38:00,56.8,46.8,29.97,SW,225,0.0,0.0,69,0.00,CLR,,0.00,WeatherDisplay:10.37,2013-08-31 09:38:00,
2013-08-31 02:43:00,56.8,46.8,29.97,NW,315,1.2,0.0,69,0.00,CLR,,0.00,WeatherDisplay:10.37,2013-08-31 09:43:00,
2013-08-31 02:48:00,56.7,46.6,29.97,West,270,0.0,0.0,69,0.00,CLR,,0.00,WeatherDisplay:10.37,2013-08-31 09:48:00,
2013-08-31 02:53:00,56.7,46.6,29.97,West,270,1.2,0.0,69,0.00,CLR,,0.00,WeatherDisplay:10.37,2013-08-31 09:53:00,
2013-08-31 02:58:00,56.7,46.6,29.97,West,270,0.0,0.0,69,0.00,CLR,,0.00,WeatherDisplay:10.37,2013-08-31 09:58:00,
2013-08-31 03:03:00,56.7,46.6,29.97,West,270,1.2,0.0,69,0.00,CLR,,0.00,WeatherDisplay:10.37,2013-08-31 10:03:00,
2013-08-31 03:08:00,56.7,47.0,29.97,SW,225,1.2,0.0,70,0.00,CLR,,0.00,WeatherDisplay:10.37,2013-08-31 10:08:00,
2013-08-31 03:13:00,56.7,47.0,29.97,SW,225,0.0,0.0,70,0.00,CLR,,0.00,WeatherDisplay:10.37,2013-08-31 10:13:00,
2013-08-31 03:18:00,56.8,46.8,29.97,SW,225,1.2,0.0,69,0.00,CLR,,0.00,WeatherDisplay:10.37,2013-08-31 10:18:00,
2013-08-31 03:23:00,56.5,46.8,29.97,SW,225,1.2,0.0,70,0.00,CLR,,0.00,WeatherDisplay:10.37,2013-08-31 10:23:00,
2013-08-31 03:28:00,56.5,46.8,29.96,SW,225,1.2,1.2,70,0.00,CLR,,0.00,WeatherDisplay:10.37,2013-08-31 10:28:00,
2013-08-31 03:33:00,56.5,46.8,29.96,SW,225,1.2,0.0,70,0.00,CLR,,0.00,WeatherDisplay:10.37,2013-08-31 10:33:00,
2013-08-31 03:38:00,56.3,46.6,29.96,SW,225,1.2,1.2,70,0.00,CLR,,0.00,WeatherDisplay:10.37,2013-08-31 10:38:00,
2013-08-31 03:43:00,56.3,46.6,29.96,SW,225,1.2,1.2,70,0.00,CLR,,0.00,WeatherDisplay:10.37,2013-08-31 10:43:00,
2013-08-31 03:48:00,56.3,46.6,29.96,SW,225,1.2,0.0,70,0.00,CLR,,0.00,WeatherDisplay:10.37,2013-08-31 10:48:00,
2013-08-31 03:53:00,56.1,46.5,29.96,SW,225,1.2,0.0,70,0.00,CLR,,0.00,WeatherDisplay:10.37,2013-08-31 10:53:00,
2013-08-31 03:58:00,56.3,46.6,29.95,SW,225,1.2,0.0,70,0.00,CLR,,0.00,WeatherDisplay:10.37,2013-08-31 10:58:00,
2013-08-31 04:03:00,56.1,46.5,29.96,SW,225,1.2,0.0,70,0.00,CLR,,0.00,WeatherDisplay:10.37,2013-08-31 11:03:00,
2013-08-31 04:08:00,56.3,47.0,29.96,South,180,1.2,0.0,71,0.00,CLR,,0.00,WeatherDisplay:10.37,2013-08-31 11:08:00,
2013-08-31 04:13:00,56.3,47.0,29.96,South,180,1.2,0.0,71,0.00,CLR,,0.00,WeatherDisplay:10.37,2013-08-31 11:13:00,
2013-08-31 04:18:00,56.5,47.2,29.96,South,180,1.2,0.0,71,0.00,CLR,,0.00,WeatherDisplay:10.37,2013-08-31 11:18:00,
2013-08-31 04:23:00,56.5,47.2,29.96,South,180,1.2,0.0,71,0.00,CLR,,0.00,WeatherDisplay:10.37,2013-08-31 11:23:00,
2013-08-31 04:28:00,56.3,47.0,29.95,South,180,1.2,0.0,71,0.00,CLR,,0.00,WeatherDisplay:10.37,2013-08-31 11:28:00,
2013-08-31 04:33:00,56.5,47.2,29.95,South,180,1.2,0.0,71,0.00,CLR,,0.00,WeatherDisplay:10.37,2013-08-31 11:33:00,
2013-08-31 04:38:00,56.5,47.2,29.95,South,180,1.2,0.0,71,0.00,CLR,,0.00,WeatherDisplay:10.37,2013-08-31 11:38:00,
2013-08-31 04:43:00,56.5,47.2,29.95,South,180,1.2,0.0,71,0.00,CLR,,0.00,WeatherDisplay:10.37,2013-08-31 11:43:00,
2013-08-31 04:48:00,56.5,47.6,29.95,SW,225,1.2,1.2,72,0.00,CLR,,0.00,WeatherDisplay:10.37,2013-08-31 11:48:00,
2013-08-31 04:53:00,56.5,47.6,29.95,SW,225,1.2,0.0,72,0.00,CLR,,0.00,WeatherDisplay:10.37,2013-08-31 11:53:00,
2013-08-31 04:58:00,56.5,47.6,29.95,SW,225,1.2,0.0,72,0.00,CLR,,0.00,WeatherDisplay:10.37,2013-08-31 11:58:00,
2013-08-31 05:03:00,56.5,47.6,29.95,SW,225,1.2,0.0,72,0.00,CLR,,0.00,WeatherDisplay:10.37,2013-08-31 12:03:00,
2013-08-31 05:08:00,56.7,47.7,29.95,SW,225,1.2,0.0,72,0.00,CLR,,0.00,WeatherDisplay:10.37,2013-08-31 12:08:00,
2013-08-31 05:13:00,56.7,47.7,29.95,SW,225,1.2,0.0,72,0.00,CLR,,0.00,WeatherDisplay:10.37,2013-08-31 12:13:00,
2013-08-31 05:18:00,56.7,48.1,29.95,SW,225,2.3,2.3,73,0.00,CLR,,0.00,WeatherDisplay:10.37,2013-08-31 12:18:00,
2013-08-31 05:23:00,57.0,48.1,29.95,SW,225,1.2,1.2,72,0.00,CLR,,0.00,WeatherDisplay:10.37,2013-08-31 12:23:00,
2013-08-31 05:28:00,56.7,47.7,29.95,SW,225,2.3,2.3,72,0.00,CLR,,0.00,WeatherDisplay:10.37,2013-08-31 12:28:00,
2013-08-31 05:33:00,56.8,48.3,29.95,SW,225,2.3,0.0,73,0.00,CLR,,0.00,WeatherDisplay:10.37,2013-08-31 12:33:00,
2013-08-31 05:38:00,56.8,48.3,29.95,South,180,1.2,1.2,73,0.00,CLR,,0.00,WeatherDisplay:10.37,2013-08-31 12:38:00,
2013-08-31 05:43:00,56.8,48.3,29.95,South,180,2.3,2.3,73,0.00,CLR,,0.00,WeatherDisplay:10.37,2013-08-31 12:43:00,
2013-08-31 05:48:00,56.8,48.3,29.94,SW,225,2.3,2.3,73,0.00,CLR,,0.00,WeatherDisplay:10.37,2013-08-31 12:48:00,
2013-08-31 05:53:00,56.8,48.3,29.94,SW,225,1.2,0.0,73,0.00,CLR,,0.00,WeatherDisplay:10.37,2013-08-31 12:53:00,
2013-08-31 05:58:00,56.8,48.3,29.94,South,180,1.6,1.6,73,0.00,CLR,,0.00,WeatherDisplay:10.37,2013-08-31 12:58:00,
2013-08-31 06:03:00,56.8,48.3,29.94,SW,225,1.2,0.0,73,0.00,CLR,,0.00,WeatherDisplay:10.37,2013-08-31 13:03:00,
2013-08-31 06:08:00,56.8,48.3,29.95,SW,225,1.2,0.0,73,0.00,CLR,,0.00,WeatherDisplay:10.37,2013-08-31 13:08:00,
2013-08-31 06:13:00,56.8,48.3,29.94,SW,225,1.2,0.0,73,0.00,CLR,,0.00,WeatherDisplay:10.37,2013-08-31 13:13:00,
2013-08-31 06:18:00,56.8,48.3,29.94,SW,225,2.3,2.3,73,0.00,CLR,,0.00,WeatherDisplay:10.37,2013-08-31 13:18:00,
2013-08-31 06:23:00,56.8,48.3,29.94,SW,225,1.2,0.0,73,0.00,CLR,,0.00,WeatherDisplay:10.37,2013-08-31 13:23:00,
2013-08-31 06:28:00,56.8,48.3,29.94,SW,225,1.2,1.2,73,0.00,CLR,,0.00,WeatherDisplay:10.37,2013-08-31 13:28:00,
2013-08-31 06:33:00,56.8,48.3,29.94,SW,225,1.2,1.2,73,0.00,CLR,,0.00,WeatherDisplay:10.37,2013-08-31 13:33:00,
2013-08-31 06:38:00,56.8,48.3,29.94,SW,225,1.2,1.2,73,0.00,CLR,,0.00,WeatherDisplay:10.37,2013-08-31 13:38:00,
2013-08-31 06:43:00,56.8,48.3,29.94,SW,225,2.3,2.3,73,0.00,CLR,,0.00,WeatherDisplay:10.37,2013-08-31 13:43:00,
2013-08-31 06:48:00,56.8,48.3,29.94,SW,225,2.3,2.3,73,0.00,CLR,,0.00,WeatherDisplay:10.37,2013-08-31 13:48:00,
2013-08-31 06:53:00,56.8,48.3,29.94,SW,225,2.3,2.3,73,0.00,CLR,,0.00,WeatherDisplay:10.37,2013-08-31 13:53:00,
2013-08-31 06:58:00,56.8,48.3,29.94,SW,225,2.3,2.3,73,0.00,CLR,,0.00,WeatherDisplay:10.37,2013-08-31 13:58:00,
2013-08-31 07:04:00,56.8,48.3,29.94,SW,225,1.2,1.2,73,0.00,CLR,,0.00,WeatherDisplay:10.37,2013-08-31 14:04:00,
2013-08-31 07:09:00,57.0,48.8,29.94,SW,225,2.3,2.3,74,0.00,CLR,,0.00,WeatherDisplay:10.37,2013-08-31 14:09:00,
2013-08-31 07:14:00,57.0,48.8,29.94,SW,225,2.3,2.3,74,0.00,CLR,,0.00,WeatherDisplay:10.37,2013-08-31 14:14:00,
2013-08-31 07:19:00,57.2,49.0,29.94,SW,225,1.2,1.2,74,0.00,CLR,,0.00,WeatherDisplay:10.37,2013-08-31 14:19:00,
2013-08-31 07:24:00,57.4,49.5,29.93,SW,225,1.2,0.0,75,0.00,CLR,,0.00,WeatherDisplay:10.37,2013-08-31 14:24:00,
2013-08-31 07:29:00,57.6,49.7,29.94,SW,225,1.2,1.2,75,0.00,CLR,,0.00,WeatherDisplay:10.37,2013-08-31 14:29:00,
2013-08-31 07:34:00,57.7,49.9,29.93,SW,225,1.2,1.2,75,0.00,CLR,,0.00,WeatherDisplay:10.37,2013-08-31 14:34:00,
2013-08-31 07:39:00,57.7,49.9,29.93,SW,225,1.6,0.0,75,0.00,CLR,,0.00,WeatherDisplay:10.37,2013-08-31 14:39:00,
2013-08-31 07:44:00,57.9,50.0,29.93,SW,225,1.2,0.0,75,0.00,CLR,,0.00,WeatherDisplay:10.37,2013-08-31 14:44:00,
2013-08-31 07:49:00,58.1,50.2,29.93,SW,225,1.6,0.0,75,0.00,CLR,,0.00,WeatherDisplay:10.37,2013-08-31 14:49:00,
2013-08-31 07:54:00,58.3,50.4,29.93,SW,225,1.2,1.2,75,0.00,CLR,,0.00,WeatherDisplay:10.37,2013-08-31 14:54:00,
2013-08-31 07:59:00,58.3,50.4,29.93,SW,225,1.2,0.0,75,0.00,CLR,,0.00,WeatherDisplay:10.37,2013-08-31 14:59:00,
2013-08-31 08:04:00,58.5,50.6,29.93,SW,225,1.2,1.2,75,0.00,CLR,,0.00,WeatherDisplay:10.37,2013-08-31 15:04:00,
2013-08-31 08:09:00,58.5,50.6,29.93,SW,225,3.5,3.5,75,0.00,CLR,,0.00,WeatherDisplay:10.37,2013-08-31 15:09:00,
2013-08-31 08:14:00,58.5,50.6,29.93,SW,225,3.5,3.5,75,0.00,CLR,,0.00,WeatherDisplay:10.37,2013-08-31 15:14:00,
2013-08-31 08:19:00,58.6,50.7,29.93,SW,225,1.2,0.0,75,0.00,CLR,,0.00,WeatherDisplay:10.37,2013-08-31 15:19:00,
2013-08-31 08:24:00,58.8,50.9,29.93,SW,225,2.3,0.0,75,0.00,CLR,,0.00,WeatherDisplay:10.37,2013-08-31 15:24:00,
2013-08-31 08:29:00,59.2,51.3,29.93,West,270,1.2,0.0,75,0.00,CLR,,0.00,WeatherDisplay:10.37,2013-08-31 15:29:00,
2013-08-31 08:34:00,59.4,51.4,29.93,SW,225,2.3,2.3,75,0.00,CLR,,0.00,WeatherDisplay:10.37,2013-08-31 15:34:00,
2013-08-31 08:39:00,59.2,51.3,29.93,SW,225,2.3,2.3,75,0.00,CLR,,0.00,WeatherDisplay:10.37,2013-08-31 15:39:00,
2013-08-31 08:44:00,59.4,51.4,29.93,West,270,1.2,0.0,75,0.00,CLR,,0.00,WeatherDisplay:10.37,2013-08-31 15:44:00,
2013-08-31 08:49:00,59.5,51.6,29.93,SW,225,1.2,0.0,75,0.00,CLR,,0.00,WeatherDisplay:10.37,2013-08-31 15:49:00,
2013-08-31 08:54:00,59.4,51.4,29.93,SW,225,3.5,3.5,75,0.00,CLR,,0.00,WeatherDisplay:10.37,2013-08-31 15:54:00,
2013-08-31 08:59:00,59.4,51.4,29.93,SW,225,2.3,2.3,75,0.00,CLR,,0.00,WeatherDisplay:10.37,2013-08-31 15:59:00,
2013-08-31 09:04:00,59.4,51.1,29.93,SW,225,2.3,2.3,74,0.00,CLR,,0.00,WeatherDisplay:10.37,2013-08-31 16:04:00,
2013-08-31 09:09:00,60.3,52.3,29.93,South,180,1.2,0.0,75,0.00,CLR,,0.00,WeatherDisplay:10.37,2013-08-31 16:09:00,
2013-08-31 09:14:00,60.4,52.1,29.93,SW,225,2.3,2.3,74,0.00,CLR,,0.00,WeatherDisplay:10.37,2013-08-31 16:14:00,
2013-08-31 09:19:00,61.2,52.8,29.93,South,180,2.3,0.0,74,0.00,CLR,,0.00,WeatherDisplay:10.37,2013-08-31 16:19:00,
2013-08-31 09:24:00,62.4,54.0,29.93,SE,135,2.3,2.3,74,0.00,CLR,,0.00,WeatherDisplay:10.37,2013-08-31 16:24:00,
2013-08-31 09:29:00,62.8,52.8,29.93,South,180,2.3,2.3,70,0.00,CLR,,0.00,WeatherDisplay:10.37,2013-08-31 16:29:00,
2013-08-31 09:34:00,63.9,53.9,29.93,South,180,2.3,2.3,70,0.00,CLR,,0.00,WeatherDisplay:10.37,2013-08-31 16:34:00,
2013-08-31 09:39:00,64.0,52.4,29.93,South,180,3.5,3.5,66,0.00,CLR,,0.00,WeatherDisplay:10.37,2013-08-31 16:39:00,
2013-08-31 09:44:00,64.6,52.1,29.93,South,180,2.3,2.3,64,0.00,CLR,,0.00,WeatherDisplay:10.37,2013-08-31 16:44:00,
2013-08-31 09:49:00,65.1,52.6,29.93,South,180,1.2,1.2,64,0.00,CLR,,0.00,WeatherDisplay:10.37,2013-08-31 16:49:00,
2013-08-31 09:54:00,65.1,49.5,29.93,SSW,202,4.6,4.6,57,0.00,CLR,,0.00,WeatherDisplay:10.37,2013-08-31 16:54:00,
2013-08-31 09:59:00,64.2,46.7,29.93,SSW,202,5.8,5.8,53,0.00,CLR,,0.00,WeatherDisplay:10.37,2013-08-31 16:59:00,
2013-08-31 10:04:00,64.6,48.0,29.93,South,180,3.5,3.5,55,0.00,CLR,,0.00,WeatherDisplay:10.37,2013-08-31 17:04:00,
2013-08-31 10:09:00,65.7,48.1,29.93,South,180,3.5,3.5,53,0.00,CLR,,0.00,WeatherDisplay:10.37,2013-08-31 17:09:00,
2013-08-31 10:14:00,66.7,48.5,29.93,South,180,1.2,1.2,52,0.00,CLR,,0.00,WeatherDisplay:10.37,2013-08-31 17:14:00,
2013-08-31 10:19:00,67.1,47.3,29.93,South,180,2.3,2.3,49,0.00,CLR,,0.00,WeatherDisplay:10.37,2013-08-31 17:19:00,
2013-08-31 10:24:00,67.1,44.4,29.93,South,180,2.3,2.3,44,0.00,CLR,,0.00,WeatherDisplay:10.37,2013-08-31 17:24:00,
2013-08-31 10:29:00,67.1,43.2,29.93,South,180,3.5,3.5,42,0.00,CLR,,0.00,WeatherDisplay:10.37,2013-08-31 17:29:00,
2013-08-31 10:34:00,66.6,42.7,29.93,SW,225,5.8,5.8,42,0.00,CLR,,0.00,WeatherDisplay:10.37,2013-08-31 17:34:00,
2013-08-31 10:39:00,66.4,43.2,29.92,SW,225,3.5,3.5,43,0.00,CLR,,0.00,WeatherDisplay:10.37,2013-08-31 17:39:00,
2013-08-31 10:44:00,67.3,44.6,29.92,SW,225,4.5,4.5,44,0.00,CLR,,0.00,WeatherDisplay:10.37,2013-08-31 17:44:00,
2013-08-31 10:49:00,67.8,42.6,29.92,South,180,2.3,2.3,40,0.00,CLR,,0.00,WeatherDisplay:10.37,2013-08-31 17:49:00,
2013-08-31 10:54:00,67.8,40.6,29.92,SW,225,4.6,4.6,37,0.00,CLR,,0.00,WeatherDisplay:10.37,2013-08-31 17:54:00,
2013-08-31 10:59:00,67.6,41.8,29.92,South,180,3.5,3.5,39,0.00,CLR,,0.00,WeatherDisplay:10.37,2013-08-31 17:59:00,
2013-08-31 11:04:00,68.2,41.6,29.92,North,0,4.6,4.6,38,0.00,CLR,,0.00,WeatherDisplay:10.37,2013-08-31 18:04:00,
2013-08-31 11:09:00,68.2,40.9,29.92,South,180,5.8,5.8,37,0.00,CLR,,0.00,WeatherDisplay:10.37,2013-08-31 18:09:00,
2013-08-31 11:14:00,67.5,40.3,29.92,SW,225,8.1,8.1,37,0.00,CLR,,0.00,WeatherDisplay:10.37,2013-08-31 18:14:00,
2013-08-31 11:37:00,70.5,38.4,29.92,SE,135,3.8,3.8,31,0.00,CLR,,0.00,WeatherDisplay:10.37,2013-08-31 18:37:00,
2013-08-31 11:42:00,70.9,34.3,29.92,South,180,3.5,3.5,26,0.00,CLR,,0.00,WeatherDisplay:10.37,2013-08-31 18:42:00,
2013-08-31 11:47:00,69.4,33.0,29.92,SW,225,10.4,10.4,26,0.00,CLR,,0.00,WeatherDisplay:10.37,2013-08-31 18:47:00,
2013-08-31 11:52:00,71.1,33.4,29.92,SW,225,9.2,9.2,25,0.00,CLR,,0.00,WeatherDisplay:10.37,2013-08-31 18:52:00,
2013-08-31 11:57:00,71.6,34.9,29.92,SW,225,8.1,8.1,26,0.00,CLR,,0.00,WeatherDisplay:10.37,2013-08-31 18:57:00,
2013-08-31 12:02:00,72.7,31.6,29.91,West,270,10.4,10.4,22,0.00,CLR,,0.00,WeatherDisplay:10.37,2013-08-31 19:02:00,
2013-08-31 12:07:00,74.3,22.0,29.91,South,180,5.8,5.8,14,0.00,CLR,,0.00,WeatherDisplay:10.37,2013-08-31 19:07:00,
2013-08-31 12:21:00,72.9,24.0,29.92,South,180,11.5,11.5,16,0.00,CLR,,0.00,WeatherDisplay:10.37,2013-08-31 19:21:00,
2013-08-31 12:26:00,73.2,28.5,29.91,SW,225,11.5,11.5,19,0.00,CLR,,0.00,WeatherDisplay:10.37,2013-08-31 19:26:00,
2013-08-31 12:31:00,72.7,30.5,29.91,South,180,11.5,11.5,21,0.00,CLR,,0.00,WeatherDisplay:10.37,2013-08-31 19:31:00,
2013-08-31 12:36:00,72.5,31.5,29.91,SW,225,12.7,12.7,22,0.00,CLR,,0.00,WeatherDisplay:10.37,2013-08-31 19:36:00,
2013-08-31 12:41:00,73.6,28.8,29.91,SW,225,9.2,9.2,19,0.00,CLR,,0.00,WeatherDisplay:10.37,2013-08-31 19:41:00,
2013-08-31 12:46:00,73.4,27.3,29.91,SW,225,10.4,10.4,18,0.00,CLR,,0.00,WeatherDisplay:10.37,2013-08-31 19:46:00,
2013-08-31 12:51:00,73.8,27.6,29.91,SW,225,10.4,10.4,18,0.00,CLR,,0.00,WeatherDisplay:10.37,2013-08-31 19:51:00,
2013-08-31 12:56:00,74.5,28.2,29.91,SW,225,10.4,10.4,18,0.00,CLR,,0.00,WeatherDisplay:10.37,2013-08-31 19:56:00,
2013-08-31 13:01:00,73.8,27.6,29.91,SW,225,12.1,12.1,18,0.00,CLR,,0.00,WeatherDisplay:10.37,2013-08-31 20:01:00,
2013-08-31 13:06:00,73.0,19.2,29.91,SW,225,12.7,12.7,13,0.00,CLR,,0.00,WeatherDisplay:10.37,2013-08-31 20:06:00,
2013-08-31 13:11:00,73.2,28.5,29.91,South,180,10.4,10.4,19,0.00,CLR,,0.00,WeatherDisplay:10.37,2013-08-31 20:11:00,
2013-08-31 13:16:00,73.9,23.3,29.91,SW,225,8.1,8.1,15,0.00,CLR,,0.00,WeatherDisplay:10.37,2013-08-31 20:16:00,
2013-08-31 13:22:00,73.6,23.0,29.91,SW,225,8.1,8.1,15,0.00,CLR,,0.00,WeatherDisplay:10.37,2013-08-31 20:22:00,
2013-08-31 13:27:00,73.4,21.3,29.91,SW,225,8.1,8.1,14,0.00,CLR,,0.00,WeatherDisplay:10.37,2013-08-31 20:27:00,
2013-08-31 13:32:00,73.8,21.5,29.91,SW,225,13.8,13.8,14,0.00,CLR,,0.00,WeatherDisplay:10.37,2013-08-31 20:32:00,
2013-08-31 13:37:00,73.8,21.5,29.91,SW,225,6.9,7.6,14,0.00,CLR,,0.00,WeatherDisplay:10.37,2013-08-31 20:37:00,
2013-08-31 13:42:00,73.0,21.0,29.91,South,180,8.1,8.1,14,0.00,CLR,,0.00,WeatherDisplay:10.37,2013-08-31 20:42:00,
2013-08-31 13:47:00,74.5,22.1,29.91,South,180,10.4,10.4,14,0.00,CLR,,0.00,WeatherDisplay:10.37,2013-08-31 20:47:00,
2013-08-31 13:52:00,74.1,21.8,29.91,South,180,10.4,10.4,14,0.00,CLR,,0.00,WeatherDisplay:10.37,2013-08-31 20:52:00,
2013-08-31 13:57:00,74.5,22.1,29.91,South,180,12.7,12.7,14,0.00,CLR,,0.00,WeatherDisplay:10.37,2013-08-31 20:57:00,
2013-08-31 14:02:00,74.1,21.8,29.91,SW,225,12.7,12.7,14,0.00,CLR,,0.00,WeatherDisplay:10.37,2013-08-31 21:02:00,
2013-08-31 14:07:00,74.3,22.0,29.91,SW,225,11.5,11.5,14,0.00,CLR,,0.00,WeatherDisplay:10.37,2013-08-31 21:07:00,
2013-08-31 14:12:00,74.7,14.4,29.91,SW,225,10.4,10.4,10,0.00,CLR,,0.00,WeatherDisplay:10.37,2013-08-31 21:12:00,
2013-08-31 14:17:00,73.9,16.1,29.91,South,180,10.4,10.4,11,0.00,CLR,,0.00,WeatherDisplay:10.37,2013-08-31 21:17:00,
2013-08-31 14:22:00,74.7,14.4,29.91,South,180,12.7,12.7,10,0.00,CLR,,0.00,WeatherDisplay:10.37,2013-08-31 21:22:00,
2013-08-31 14:27:00,74.1,16.2,29.91,SW,225,13.8,13.8,11,0.00,CLR,,0.00,WeatherDisplay:10.37,2013-08-31 21:27:00,
2013-08-31 14:32:00,73.6,21.4,29.91,SW,225,13.8,13.8,14,0.00,CLR,,0.00,WeatherDisplay:10.37,2013-08-31 21:32:00,
2013-08-31 14:37:00,73.8,21.5,29.91,SW,225,10.4,10.4,14,0.00,CLR,,0.00,WeatherDisplay:10.37,2013-08-31 21:37:00,
2013-08-31 14:42:00,74.5,20.4,29.91,SW,225,11.5,11.5,13,0.00,CLR,,0.00,WeatherDisplay:10.37,2013-08-31 21:42:00,
2013-08-31 18:21:00,68.5,37.5,29.88,SW,225,3.5,3.5,32,0.00,CLR,,0.00,WeatherDisplay:10.37,2013-09-01 01:21:00,
2013-08-31 18:26:00,67.6,35.9,29.88,SW,225,4.6,4.6,31,0.00,CLR,,0.00,WeatherDisplay:10.37,2013-09-01 01:26:00,
2013-08-31 18:31:00,66.7,37.5,29.89,SW,225,4.6,4.6,34,0.00,CLR,,0.00,WeatherDisplay:10.37,2013-09-01 01:31:00,
2013-08-31 18:36:00,66.0,38.3,29.88,SW,225,3.5,3.5,36,0.00,CLR,,0.00,WeatherDisplay:10.37,2013-09-01 01:36:00,
2013-08-31 18:41:00,65.5,39.2,29.88,SW,225,4.6,4.6,38,0.00,CLR,,0.00,WeatherDisplay:10.37,2013-09-01 01:41:00,
2013-08-31 18:46:00,64.9,39.4,29.88,SW,225,5.8,5.8,39,0.00,CLR,,0.00,WeatherDisplay:10.37,2013-09-01 01:46:00,
2013-08-31 18:51:00,64.4,40.8,29.88,South,180,5.8,5.8,42,0.00,CLR,,0.00,WeatherDisplay:10.37,2013-09-01 01:51:00,
2013-08-31 18:56:00,64.0,41.7,29.88,SW,225,5.8,5.8,44,0.00,CLR,,0.00,WeatherDisplay:10.37,2013-09-01 01:56:00,
2013-08-31 19:01:00,63.5,41.8,29.88,SW,225,5.8,5.8,45,0.00,CLR,,0.00,WeatherDisplay:10.37,2013-09-01 02:01:00,
2013-08-31 19:06:00,63.5,41.8,29.88,SW,225,5.8,5.8,45,0.00,CLR,,0.00,WeatherDisplay:10.37,2013-09-01 02:06:00,
2013-08-31 19:11:00,63.0,41.8,29.88,SW,225,9.2,9.2,46,0.00,CLR,,0.00,WeatherDisplay:10.37,2013-09-01 02:11:00,
2013-08-31 19:16:00,62.6,41.5,29.88,SW,225,4.6,4.6,46,0.00,CLR,,0.00,WeatherDisplay:10.37,2013-09-01 02:16:00,
2013-08-31 19:21:00,61.9,42.0,29.88,SW,225,3.5,3.5,48,0.00,CLR,,0.00,WeatherDisplay:10.37,2013-09-01 02:21:00,
2013-08-31 19:26:00,61.2,42.4,29.88,SW,225,3.5,3.5,50,0.00,CLR,,0.00,WeatherDisplay:10.37,2013-09-01 02:26:00,
2013-08-31 19:33:00,60.8,42.5,29.89,North,0,3.5,0.0,51,0.00,CLR,,0.00,WeatherDisplay:10.37,2013-09-01 02:33:00,
2013-08-31 19:38:00,59.9,43.7,29.88,West,270,2.3,2.3,55,0.00,CLR,,0.00,WeatherDisplay:10.37,2013-09-01 02:38:00,
2013-08-31 19:43:00,59.5,43.8,29.88,SW,225,3.5,3.5,56,0.00,CLR,,0.00,WeatherDisplay:10.37,2013-09-01 02:43:00,
2013-08-31 19:48:00,59.4,44.1,29.88,SW,225,3.5,3.5,57,0.00,CLR,,0.00,WeatherDisplay:10.37,2013-09-01 02:48:00,
2013-08-31 19:53:00,59.2,44.4,29.89,SW,225,1.2,1.2,58,0.00,CLR,,0.00,WeatherDisplay:10.37,2013-09-01 02:53:00,
2013-08-31 19:58:00,59.0,44.7,29.89,South,180,2.2,2.2,59,0.00,CLR,,0.00,WeatherDisplay:10.37,2013-09-01 02:58:00,
2013-08-31 20:04:00,58.8,45.0,29.89,West,270,3.5,3.5,60,0.00,CLR,,0.00,WeatherDisplay:10.37,2013-09-01 03:04:00,
2013-08-31 20:09:00,58.8,45.0,29.89,NW,315,1.6,0.0,60,0.00,CLR,,0.00,WeatherDisplay:10.37,2013-09-01 03:09:00,
2013-08-31 20:14:00,58.8,45.4,29.90,SW,225,3.5,3.5,61,0.00,CLR,,0.00,WeatherDisplay:10.37,2013-09-01 03:14:00,
2013-08-31 20:19:00,58.8,45.4,29.90,SSW,202,2.3,2.3,61,0.00,CLR,,0.00,WeatherDisplay:10.37,2013-09-01 03:19:00,
2013-08-31 20:24:00,58.6,45.2,29.90,SW,225,4.6,4.6,61,0.00,CLR,,0.00,WeatherDisplay:10.37,2013-09-01 03:24:00,
2013-08-31 20:29:00,58.6,45.7,29.90,SW,225,3.5,3.5,62,0.00,CLR,,0.00,WeatherDisplay:10.37,2013-09-01 03:29:00,
2013-08-31 20:34:00,58.6,45.7,29.91,SW,225,3.5,3.5,62,0.00,CLR,,0.00,WeatherDisplay:10.37,2013-09-01 03:34:00,
2013-08-31 20:39:00,58.5,45.5,29.91,South,180,5.8,5.8,62,0.00,CLR,,0.00,WeatherDisplay:10.37,2013-09-01 03:39:00,
2013-08-31 20:44:00,58.3,45.7,29.91,SW,225,5.8,5.8,63,0.00,CLR,,0.00,WeatherDisplay:10.37,2013-09-01 03:44:00,
2013-08-31 20:49:00,58.3,46.2,29.91,SW,225,3.5,3.5,64,0.00,CLR,,0.00,WeatherDisplay:10.37,2013-09-01 03:49:00,
2013-08-31 20:54:00,58.1,46.4,29.91,SW,225,5.8,5.8,65,0.00,CLR,,0.00,WeatherDisplay:10.37,2013-09-01 03:54:00,
2013-08-31 20:58:00,57.9,46.6,29.91,SW,225,6.9,6.9,66,0.00,CLR,,0.00,WeatherDisplay:10.37,2013-09-01 03:58:00,
2013-08-31 21:01:00,57.9,46.6,29.91,SW,225,6.9,6.9,66,0.00,CLR,,0.00,WeatherDisplay:10.37,2013-09-01 04:01:00,
2013-08-31 21:06:00,57.6,46.7,29.92,South,180,9.2,9.2,67,0.00,CLR,,0.00,WeatherDisplay:10.37,2013-09-01 04:06:00,
2013-08-31 21:11:00,57.4,46.5,29.91,SW,225,9.2,9.2,67,0.00,CLR,,0.00,WeatherDisplay:10.37,2013-09-01 04:11:00,
2013-08-31 21:16:00,57.6,47.1,29.91,SSW,202,8.1,8.1,68,0.00,CLR,,0.00,WeatherDisplay:10.37,2013-09-01 04:16:00,
2013-08-31 21:21:00,57.4,46.9,29.91,SW,225,5.8,5.8,68,0.00,CLR,,0.00,WeatherDisplay:10.37,2013-09-01 04:21:00,
2013-08-31 21:26:00,57.4,46.9,29.91,South,180,8.1,8.1,68,0.00,CLR,,0.00,WeatherDisplay:10.37,2013-09-01 04:26:00,
2013-08-31 21:31:00,57.6,47.1,29.92,SW,225,6.9,6.9,68,0.00,CLR,,0.00,WeatherDisplay:10.37,2013-09-01 04:31:00,
2013-08-31 21:36:00,57.4,46.9,29.91,SW,225,10.4,10.4,68,0.00,CLR,,0.00,WeatherDisplay:10.37,2013-09-01 04:36:00,
2013-08-31 21:41:00,57.2,46.7,29.91,SW,225,8.1,8.1,68,0.00,CLR,,0.00,WeatherDisplay:10.37,2013-09-01 04:41:00,
2013-08-31 21:46:00,57.2,47.1,29.91,SW,225,8.1,8.1,69,0.00,CLR,,0.00,WeatherDisplay:10.37,2013-09-01 04:46:00,
2013-08-31 21:51:00,57.2,47.1,29.92,SW,225,5.8,5.8,69,0.00,CLR,,0.00,WeatherDisplay:10.37,2013-09-01 04:51:00,
2013-08-31 21:56:00,57.0,46.9,29.92,South,180,5.8,5.8,69,0.00,CLR,,0.00,WeatherDisplay:10.37,2013-09-01 04:56:00,
2013-08-31 22:01:00,57.0,47.3,29.92,SE,135,3.5,3.5,70,0.00,CLR,,0.00,WeatherDisplay:10.37,2013-09-01 05:01:00,
2013-08-31 22:06:00,57.2,47.5,29.92,South,180,4.6,4.6,70,0.00,CLR,,0.00,WeatherDisplay:10.37,2013-09-01 05:06:00,
2013-08-31 22:11:00,57.2,47.5,29.92,South,180,3.5,3.5,70,0.00,CLR,,0.00,WeatherDisplay:10.37,2013-09-01 05:11:00,
2013-08-31 22:16:00,57.0,47.3,29.92,SW,225,8.1,8.1,70,0.00,CLR,,0.00,WeatherDisplay:10.37,2013-09-01 05:16:00,
2013-08-31 22:21:00,57.0,47.3,29.92,SE,135,5.8,5.8,70,0.00,CLR,,0.00,WeatherDisplay:10.37,2013-09-01 05:21:00,
2013-08-31 22:26:00,57.0,47.3,29.92,South,180,5.8,5.8,70,0.00,CLR,,0.00,WeatherDisplay:10.37,2013-09-01 05:26:00,
2013-08-31 22:31:00,57.0,47.3,29.92,South,180,5.8,5.8,70,0.00,CLR,,0.00,WeatherDisplay:10.37,2013-09-01 05:31:00,
2013-08-31 22:36:00,57.0,47.3,29.92,SW,225,3.1,3.1,70,0.00,CLR,,0.00,WeatherDisplay:10.37,2013-09-01 05:36:00,
2013-08-31 22:41:00,56.8,47.2,29.92,South,180,3.5,3.5,70,0.00,CLR,,0.00,WeatherDisplay:10.37,2013-09-01 05:41:00,
2013-08-31 22:46:00,56.8,47.2,29.92,SW,225,3.5,3.5,70,0.00,CLR,,0.00,WeatherDisplay:10.37,2013-09-01 05:46:00,
2013-08-31 22:51:00,56.8,47.2,29.92,SW,225,4.6,4.6,70,0.00,CLR,,0.00,WeatherDisplay:10.37,2013-09-01 05:51:00,
2013-08-31 22:56:00,56.7,47.0,29.92,SW,225,3.5,3.5,70,0.00,CLR,,0.00,WeatherDisplay:10.37,2013-09-01 05:56:00,
2013-08-31 23:01:00,56.7,47.0,29.92,SSW,202,3.5,3.5,70,0.00,CLR,,0.00,WeatherDisplay:10.37,2013-09-01 06:01:00,
2013-08-31 23:06:00,56.7,47.0,29.93,NW,315,3.5,3.5,70,0.00,CLR,,0.00,WeatherDisplay:10.37,2013-09-01 06:06:00,
2013-08-31 23:11:00,56.7,47.0,29.92,SW,225,1.2,1.2,70,0.00,CLR,,0.00,WeatherDisplay:10.37,2013-09-01 06:11:00,
2013-08-31 23:16:00,56.7,47.0,29.93,SW,225,2.3,0.0,70,0.00,CLR,,0.00,WeatherDisplay:10.37,2013-09-01 06:16:00,
2013-08-31 23:21:00,57.0,47.3,29.93,SW,225,2.3,0.0,70,0.00,CLR,,0.00,WeatherDisplay:10.37,2013-09-01 06:21:00,
2013-08-31 23:26:00,56.7,47.0,29.92,SW,225,4.6,4.6,70,0.00,CLR,,0.00,WeatherDisplay:10.37,2013-09-01 06:26:00,
2013-08-31 23:31:00,56.5,46.8,29.92,SW,225,1.2,0.0,70,0.00,CLR,,0.00,WeatherDisplay:10.37,2013-09-01 06:31:00,
2013-08-31 23:36:00,56.7,47.0,29.92,SE,135,1.2,0.0,70,0.00,CLR,,0.00,WeatherDisplay:10.37,2013-09-01 06:36:00,
2013-08-31 23:41:00,56.7,47.0,29.92,SE,135,3.5,3.5,70,0.00,CLR,,0.00,WeatherDisplay:10.37,2013-09-01 06:41:00,
2013-08-31 23:46:00,56.7,47.0,29.92,SW,225,4.6,4.6,70,0.00,CLR,,0.00,WeatherDisplay:10.37,2013-09-01 06:46:00,
2013-08-31 23:51:00,56.7,47.0,29.91,South,180,3.5,3.5,70,0.00,CLR,,0.00,WeatherDisplay:10.37,2013-09-01 06:51:00,
2013-08-31 23:56:00,56.5,46.4,29.91,South,180,4.6,4.6,69,0.00,CLR,,0.00,WeatherDisplay:10.37,2013-09-01 06:56:00,